Edna St. Vincent Millay

(22 February 1892 – 19 October 1950 / Rockland / Maine / United States)

Stats

» Click to list general statistics » OR, select a date :

General Statistics

Visitors of the poet

Number of visitors of the poet’s mainpage in PoemHunter.Com

Attention : Numbers in this table does not indicate the total hits of poems of the poet, but indicates the hits of the poet’s main page.

Date Hits
07/26/2016 Tuesday 1114
100%
07/25/2016 Monday 645
57%
07/24/2016 Sunday 587
52%
07/23/2016 Saturday 576
51%
07/22/2016 Friday 389
34%
07/21/2016 Thursday 434
38%
07/20/2016 Wednesday 374
33%
07/19/2016 Tuesday 375
33%
07/18/2016 Monday 403
36%
07/17/2016 Sunday 302
27%
07/16/2016 Saturday 367
32%
07/15/2016 Friday 398
35%
07/14/2016 Thursday 485
43%
07/13/2016 Wednesday 330
29%
07/12/2016 Tuesday 515
46%
07/11/2016 Monday 581
52%
07/10/2016 Sunday 411
36%
07/09/2016 Saturday 356
31%
07/08/2016 Friday 448
40%
07/07/2016 Thursday 408
36%

Reader rating & num.of MyPoemList’s

Click the captions of columns to change the order.

# Poem Title Submit Date Reader Rating Num.of MyPoemList’s
Rating Num.R.
1 I will put Chaos into fourteen lines 10/24/2015 10.0 1 1
2 The Courage That My Mother Had 01/03/2015 9.0 1 2
3 Weeds 01/13/2003 8.0 1 8
4 I Know 100 Ways To Die 07/07/2003 7.8 4 28
5 Grown-Up 01/01/2004 6.3 26 31
6 Journey 01/13/2003 6.3 27 17
7 Renascence 01/04/2003 7.0 31 61
8 We Talk Of Taxes... 01/01/2004 6.2 28 4
9 I, Being Born A Woman And Distressed 01/01/2004 6.7 33 54
10 Elegy Before Death 01/13/2003 6.1 31 14
11 Wraith 01/13/2003 5.7 30 12
12 The Penitent 01/13/2003 5.6 30 11
13 Humoresque 01/01/2004 5.6 30 16
14 Two Sonnets In Memory 01/13/2003 5.9 32 6
15 Memorial To D.C. 01/13/2003 5.8 32 2
16 Intention To Escape From Him 01/13/2003 6.3 35 21
17 Eel-Grass 01/13/2003 6.0 33 11
18 Fontaine, Je Ne Boirai Pas De Ton Eau! 01/13/2003 5.5 31 8
19 Wild Swans 01/13/2003 6.2 35 14
20 Sonnets 05: Once More Into My Arid Days Like Dew 01/13/2003 5.7 32 8
21 If Still Your Orchards Bear 01/13/2003 5.8 33 7
22 Indifference 01/13/2003 5.8 33 11
23 Ode To Silence 01/13/2003 5.9 34 15
24 The Blue Flag In The Bog 01/01/2004 5.9 34 4
25 Justice Denied In Massachusetts 01/13/2003 5.9 34 8
26 Interim 01/13/2003 6.1 36 14
27 Portrait By A Neighbour 01/13/2003 5.9 35 9
28 Menses 01/13/2003 5.6 33 6
29 Sonnets 04: Only Until This Cigarette Is Ended 01/13/2003 5.9 35 12
30 Underground System 01/13/2003 5.9 35 3
31 Oh, My Belovèd, Have You Thought Of This 01/01/2004 6.0 36 13
32 Oh, Oh, You Will Be Sorry 01/13/2003 6.5 39 34
33 Pity Me Not Because The Light Of Day 01/13/2003 6.3 38 32
34 Midnight Oil 01/13/2003 6.0 36 12
35 Prayer To Persephone 01/13/2003 5.5 33 18
36 When I Too Long Have Looked Upon Your Face 01/01/2004 6.4 39 32
37 Lines For A Grave-Stone 01/01/2004 6.1 37 8
38 When We Are Old And These Rejoicing Veins 01/13/2003 5.7 35 14
39 Kin To Sorrow 01/13/2003 5.5 34 21
40 Lament 01/13/2003 6.5 40 26
41 Modern Declaration 01/13/2003 5.6 35 9
42 If I Should Learn, In Some Quite Casual Way 01/01/2004 6.4 40 36
43 Epitaph 01/13/2003 6.1 38 17
44 I Know I Am But Summer To Your Heart 01/13/2003 6.5 41 48
45 The Little Ghost 01/13/2003 6.1 38 16
46 Night Is My Sister, And How Deep In Love 01/13/2003 5.8 37 27
47 Three Songs Of Shattering 01/13/2003 5.9 38 9
48 Not In A Silver Casket Cool With Pearls 01/13/2003 5.9 38 20
49 The Poet And His Book 01/13/2003 6.2 40 11
50 Inland 01/13/2003 5.5 36 8
51 No Rose That In A Garden Ever Grew 01/01/2004 5.5 36 12
52 Invocation To The Muses 01/13/2003 5.8 38 4
53 My Most Distinguished Guest And Learned Friend 01/13/2003 5.5 36 9
54 Only Until This Cigarette Is Ended 01/01/2004 5.5 36 45
55 Not Even My Pride Shall Suffer Much 01/13/2003 5.7 38 9
56 Mist In The Valley 01/13/2003 6.2 41 18
57 When The Year Grows Old 01/04/2003 5.7 38 17
58 The Betrothal 01/01/2004 5.7 38 14
59 Make Bright The Arrows 01/13/2003 5.7 38 4
60 Exiled 01/13/2003 6.5 44 22
61 Recuerdo 01/01/2004 6.5 44 20
62 Travel 01/13/2003 6.0 41 17
63 Pastoral 01/13/2003 5.1 35 5
64 Witch-Wife 01/13/2003 5.6 41 26
65 To A Poet That Died Young 01/13/2003 5.8 43 7
66 Sonnets 06: No Rose That In A Garden Ever Grew 01/13/2003 5.6 42 7
67 Sonnet Iii: Mindful Of You The Sodden Earth 01/01/2004 5.6 42 5
68 Scrub 01/13/2003 5.8 43 5
69 Sonnets 07: When I Too Long Have Looked Upon Your Face 01/13/2003 5.9 44 24
70 Sonnet (Women Have Loved Before As I Love Now) 01/13/2003 5.9 44 18
71 The Wood Road 01/13/2003 5.8 44 6
72 Sonnets 10: Oh, My Beloved, Have You Thought Of This 01/13/2003 5.9 45 6
73 The Singing-Woman From The Wood's Edge 01/13/2003 5.9 45 8
74 Sonnet Iv: Not In This Chamber 01/01/2004 5.5 42 4
75 I Do But Ask That You Be Always Fair 01/01/2004 5.5 42 29
76 Sonnet I: Thou Art Not Lovelier Than Lilacs 01/01/2004 5.6 43 12
77 Mariposa 01/13/2003 6.6 51 13
78 Spring 01/13/2003 6.2 48 22
79 Sonnet 03: Mindful Of You The Sodden Earth In Spring 01/13/2003 5.4 42 5
80 Sonnets 11: As To Some Lovely Temple, Tenantless 01/13/2003 5.7 44 3
81 To Those Without Pity 01/13/2003 5.2 40 10
82 Sonnet Ii: Time Does Not Bring Relief 01/01/2004 6.0 47 25
83 Sonnet 01: Thou Art Not Lovelier Than Lilacs,&Mdash;No 01/13/2003 5.8 45 15
84 Song Of A Second April 01/13/2003 6.0 47 9
85 Whereas At Morning In A Jeweled Crown 01/13/2003 5.5 43 7
86 Sonnet 04: Not In This Chamber Only At My Birth 01/13/2003 5.6 44 4
87 I Shall Go Back 01/01/2004 5.8 46 28
88 Lines Written In Recapitulation 01/13/2003 6.2 49 4
89 I Know The Face Of Falsehood And Her Tongue 01/13/2003 5.6 44 8
90 Passer Mortuus Est 01/13/2003 5.8 46 10
91 Second Fig 01/13/2003 6.0 48 27
92 Elegy 01/13/2003 5.3 42 8
93 The Philosopher 01/13/2003 5.6 45 23
94 The Plaid Dress 01/13/2003 5.8 46 10
95 Rosemary 01/13/2003 5.6 45 6
96 Sonnets From An Ungrafted Tree 01/13/2003 5.7 46 4
97 Euclid Alone 01/01/2004 5.7 46 16
98 Sweet Love, Sweet Thorn, When Lightly To My Heart 01/13/2003 5.6 46 18
99 Sonnet 05: If I Should Learn, In Some Quite Casual Way 01/13/2003 5.9 48 18
100 Sonnet 06: Bluebeard 01/13/2003 6.1 50 9
101 Souvenir 01/13/2003 5.6 46 11
102 Feast 01/13/2003 6.0 50 14
103 Sonnet Vi: This Door You Might Not Open 01/01/2004 5.9 49 12
104 The Unexplorer 01/13/2003 6.0 50 8
105 The Return From Town 01/13/2003 5.5 47 6
106 Tavern 01/13/2003 5.6 48 8
107 Sonnets 01: We Talk Of Taxes, And I Call You Friend 01/13/2003 5.4 48 9
108 Sonnets 08: And You As Well Must Die, Beloved Dust 01/13/2003 5.5 50 7
109 Sonnets 09: Let You Not Say Of Me When I Am Old 01/13/2003 5.6 51 9
110 Sonnet V: If I Should Learn 01/01/2004 5.4 49 4
111 The Fledgling 01/13/2003 5.4 49 2
112 The True Encounter 01/13/2003 5.9 55 6
113 Sorrow 01/13/2003 5.7 53 26
114 Sonnets (1923) 01/01/2004 5.3 49 6
115 The Little Hill 01/13/2003 5.8 54 7
116 Low-Tide 01/13/2003 4.8 45 14
117 Here Is A Wound That Never Will Heal, I Know 01/13/2003 6.0 57 58
118 Think Not, Not For A Moment Let Your Mind 01/13/2003 5.7 55 14
119 Sonnets 03: Not With Libations, But With Shouts And Laughter 01/13/2003 5.8 56 6
120 To The Not Impossible Him 01/13/2003 5.4 53 14
121 First Fig 01/13/2003 7.5 75 93
122 Sonnet 02: Time Does Not Bring Relief; You All Have Lied 01/13/2003 6.5 66 67
123 The Death Of Autumn 01/13/2003 5.9 60 10
124 The Leaf And The Tree 01/13/2003 5.9 60 17
125 The Ballad Of The Harp-Weaver 01/13/2003 5.9 61 29
126 The Bean-Stalk 01/13/2003 5.6 58 5
127 Sonnets 02: Into The Golden Vessel Of Great Song 01/13/2003 5.3 55 3
128 The Shroud 01/13/2003 5.5 57 5
129 To Kathleen 01/01/2004 5.6 58 4
130 To A Young Poet 01/01/2004 5.9 62 9
131 The Suicide 01/13/2003 5.5 58 19
132 The Dream 01/13/2003 5.8 62 27
133 Love Is Not All 01/13/2003 7.5 81 177
134 Sonnets 12: Cherish You Then The Hope I Shall Forget 01/13/2003 5.5 61 3
135 God's World 01/04/2003 6.1 70 38
136 The Fawn 01/13/2003 5.8 66 5
137 I Dreamed I Moved Among The Elysian Fields 01/13/2003 5.9 68 25
138 The Curse 01/13/2003 5.9 68 13
139 Doubt No More That Oberon 01/13/2003 5.6 66 13
140 The Blue-Flag In The Bog 01/13/2003 5.3 63 2
141 The Goose-Girl 01/13/2003 5.8 69 9
142 Dirge 01/13/2003 5.6 68 11
143 The Concert 01/13/2003 5.5 71 7
144 And You As Well Must Die, Belovèd Dust 01/01/2004 6.1 78 53
145 The Snow Storm 01/13/2003 5.8 75 7
146 The Spring And The Fall 01/13/2003 8.0 111 68
147 Chorus 01/13/2003 5.8 82 23
148 Thursday 01/01/2004 5.3 76 11
149 Bluebeard 01/01/2004 5.5 80 43
150 Ashes Of Life 01/13/2003 6.0 88 67
151 Ebb 01/13/2003 5.5 81 25
152 Being Young And Green 01/13/2003 5.6 86 33
153 Dirge Without Music 01/13/2003 6.5 101 68
154 Departure 01/13/2003 5.5 88 41
155 What Lips My Lips Have Kissed, And Where, And Why (Sonnet Xliii) 01/13/2003 7.9 127 384
156 Alms 01/13/2003 5.7 93 27
157 Counting-Out Rhyme 01/01/2004 6.1 99 23
158 Blight 01/13/2003 5.9 96 22
159 Daphne 01/13/2003 5.7 94 33
160 A Visit To The Asylum 01/13/2003 6.1 101 60
161 Burial 01/13/2003 5.4 90 30
162 An Ancient Gesture 01/13/2003 6.0 108 49
163 Afternoon On A Hill 01/04/2003 6.6 119 78
164 And Do You Think That Love Itself 01/13/2003 6.1 115 63
165 Apostrophe To Man 01/13/2003 5.9 119 32
166 [four Sonnets (1922)] 01/01/2004 5.3 107 30
167 Assault 01/13/2003 5.7 125 20
168 Autumn Daybreak 01/13/2003 5.7 132 44
169 City Trees 01/13/2003 5.8 135 59
170 Conscientious Objector 01/13/2003 5.5 180 73
171 She Is Overheard Singing 06/18/2015 -- 0 1
172 The Prisoner 07/30/2015 -- 0 0
173 Childhood Is The Kingdom Where Nobody Dies 11/28/2014 -- 0 1
174 Inert Perfection 03/11/2016 -- 0 0
[Report Error]